Location: *
(33.8649°S, 62.1526°E)
Time: 11:49:56
(UTC+00:00)

BREEZE-M DEB - Pass Details

Date: 17 January 2021
Orbit: 687 x 35030 km, 45.1° (Epoch: 01 March)

Event Time Altitude Azimuth Distance (km) Brightness Sun altitude
Exits shadow 22:08:02 55° 219° (SW) 911 3.8 -27.8°
Maximum altitude 22:08:10 55° 210° (SSW) 899 3.9 -27.8°
Drops below altitude 10° 22:12:01 10° 129° (SE) 2,197 6.8 -27.4°
Sets 22:14:19 0° 124° (SE) 3,382 7.9 -27.1°
